Estación Meteorológica de la Universidad de Murcia
Estación Meteorológica de la Universidad de Murcia
Universidad de Murcia
 

Humedad relativaHumedad relativa

 

Máxima: 98,7 % a las 05:30:00 del día 20/01/2019
Mínima: 49,5 % a las 21:33:00 del día 20/01/2019

||Humedad máxima últimos meses|| ---- ||Humedad mínima últimos meses||


Humedad máxima

  • 1 - 98,7 % del día 20/01/2019
  • 2 - 81,6 % del día 19/01/2019
  • 3 - 85,1 % del día 18/01/2019
  • 4 - 93,5 % del día 17/01/2019
  • 5 - 97,6 % del día 16/01/2019
  • 6 - 96,7 % del día 15/01/2019
  • 7 - 86,3 % del día 14/01/2019
  • 8 - 71,3 % del día 13/01/2019
  • 9 - 64,4 % del día 12/01/2019
  • 10 - 75 % del día 11/01/2019
  • 11 - 74 % del día 10/01/2019
  • 12 - 62,4 % del día 09/01/2019
  • 13 - 92 % del día 08/01/2019
  • 14 - 93,9 % del día 07/01/2019
  • 15 - 60,3 % del día 06/01/2019
  • 16 - 89,8 % del día 05/01/2019
  • 17 - 96,9 % del día 04/01/2019
  • 18 - 95,5 % del día 03/01/2019
  • 19 - 92,5 % del día 02/01/2019
  • 20 - 85,2 % del día 01/01/2019
  • 21 - 86,2 % del día 31/12/2018
  • 22 - 96,6 % del día 30/12/2018
  • 23 - 96,2 % del día 29/12/2018
  • 24 - 96,2 % del día 28/12/2018
  • 25 - 97,4 % del día 27/12/2018
  • 26 - 98,3 % del día 26/12/2018
  • 27 - 93,7 % del día 25/12/2018
  • 28 - 92,4 % del día 24/12/2018
  • 29 - 95,1 % del día 23/12/2018
  • 30 - 90,6 % del día 22/12/2018
  • 31 - 93,2 % del día 21/12/2018
  • 32 - 79,3 % del día 20/12/2018
  • 33 - 91,6 % del día 19/12/2018
  • 34 - 91,8 % del día 18/12/2018
  • 35 - 87,8 % del día 17/12/2018
  • 36 - 91,4 % del día 16/12/2018
  • 37 - 78 % del día 15/12/2018
  • 38 - 60,7 % del día 14/12/2018
  • 39 - 98 % del día 13/12/2018
  • 40 - 88,9 % del día 12/12/2018
  • 41 - 95,8 % del día 11/12/2018
  • 42 - 96,2 % del día 10/12/2018
  • 43 - 97,3 % del día 09/12/2018
  • 44 - 94,9 % del día 08/12/2018
  • 45 - 95,7 % del día 07/12/2018
  • 46 - 93,3 % del día 06/12/2018
  • 47 - 92,9 % del día 05/12/2018
  • 48 - 85,7 % del día 04/12/2018
  • 49 - 93,3 % del día 03/12/2018
  • 50 - 76,8 % del día 02/12/2018
  • 51 - 76,8 % del día 01/12/2018
  • 52 - 81,8 % del día 30/11/2018
  • 53 - 83,3 % del día 29/11/2018
  • 54 - 88,4 % del día 28/11/2018
  • 55 - 75,3 % del día 27/11/2018
  • 56 - 75,6 % del día 26/11/2018
  • 57 - 93,7 % del día 25/11/2018
  • 58 - 93 % del día 24/11/2018
  • 59 - 95,8 % del día 23/11/2018
  • 60 - 96,2 % del día 22/11/2018

||Volver al inicio de la página||


Humedad mínima

  • 1 - 49,5 % del día 20/01/2019
  • 2 - 34,2 % del día 19/01/2019
  • 3 - 39,9 % del día 18/01/2019
  • 4 - 43 % del día 17/01/2019
  • 5 - 50,5 % del día 16/01/2019
  • 6 - 47,4 % del día 15/01/2019
  • 7 - 25,1 % del día 14/01/2019
  • 8 - 26,9 % del día 13/01/2019
  • 9 - 27,8 % del día 12/01/2019
  • 10 - 19 % del día 11/01/2019
  • 11 - 30,5 % del día 10/01/2019
  • 12 - 24 % del día 09/01/2019
  • 13 - 39,3 % del día 08/01/2019
  • 14 - 27,4 % del día 07/01/2019
  • 15 - 19,3 % del día 06/01/2019
  • 16 - 28,4 % del día 05/01/2019
  • 17 - 53,1 % del día 04/01/2019
  • 18 - 53,6 % del día 03/01/2019
  • 19 - 26,3 % del día 02/01/2019
  • 20 - 31,3 % del día 01/01/2019
  • 21 - 26,8 % del día 31/12/2018
  • 22 - 53,2 % del día 30/12/2018
  • 23 - 65,5 % del día 29/12/2018
  • 24 - 59 % del día 28/12/2018
  • 25 - 64,7 % del día 27/12/2018
  • 26 - 60,7 % del día 26/12/2018
  • 27 - 49,8 % del día 25/12/2018
  • 28 - 35,9 % del día 24/12/2018
  • 29 - 50,4 % del día 23/12/2018
  • 30 - 45,9 % del día 22/12/2018
  • 31 - 47,5 % del día 21/12/2018
  • 32 - 47,8 % del día 20/12/2018
  • 33 - 36,8 % del día 19/12/2018
  • 34 - 59,5 % del día 18/12/2018
  • 35 - 34,7 % del día 17/12/2018
  • 36 - 42,8 % del día 16/12/2018
  • 37 - 42,4 % del día 15/12/2018
  • 38 - 40,7 % del día 14/12/2018
  • 39 - 46,3 % del día 13/12/2018
  • 40 - 42,7 % del día 12/12/2018
  • 41 - 63,3 % del día 11/12/2018
  • 42 - 47,8 % del día 10/12/2018
  • 43 - 32,7 % del día 09/12/2018
  • 44 - 41,3 % del día 08/12/2018
  • 45 - 47,4 % del día 07/12/2018
  • 46 - 38,3 % del día 06/12/2018
  • 47 - 41,4 % del día 05/12/2018
  • 48 - 35,2 % del día 04/12/2018
  • 49 - 41,5 % del día 03/12/2018
  • 50 - 38,3 % del día 02/12/2018
  • 51 - 36,1 % del día 01/12/2018
  • 52 - 38,4 % del día 30/11/2018
  • 53 - 30,4 % del día 29/11/2018
  • 54 - 29,8 % del día 28/11/2018
  • 55 - 36,9 % del día 27/11/2018
  • 56 - 37,6 % del día 26/11/2018
  • 57 - 51,6 % del día 25/11/2018
  • 58 - 42,6 % del día 24/11/2018
  • 59 - 62,6 % del día 23/11/2018
  • 60 - 59,7 % del día 22/11/2018

 

|| Temperatura Ambiente|| Velocidad y dirección del viento|| Precipitación|| Radiación Solar Global y PAR|| Temperatura y humedad del suelo|| Presión atmosférica|| Más información|| Volver a la página principal|| Volver al inicio de la página||


Estación Meteorológica de la Universidad de Murcia
http://estacion.um.es/
Informacion actualizada a: 21/01/2019 a las 21:09:00